Location: Helds Island Access
(38.5526°N, 91.5997°W)
Time: 14:37:11
(UTC-05:00)

Daily predictions for brighter satellites

Satellite Brightness Start Highest point End
(mag) Time Altitude Azimuth Time Altitude Azimuth Time Altitude Azimuth
Thor Agena Rocket 3.6 20:43:36 10° NNE 20:48:53 75° ESE 20:54:03 10° S
Shenzhou-11 Module 2.8 20:47:55 10° WNW 20:50:48 45° NNE 20:53:41 10° E
Cosmos 2322 Rocket 2.6 20:46:15 10° NNW 20:51:42 50° ENE 20:57:08 10° SE
Abrixas rocket 4.3 20:49:10 10° W 20:52:02 28° NNW 20:54:53 10° NE
Lacrosse 5 rocket 3.4 20:49:37 10° NNW 20:52:53 20° NNE 20:56:00 10° E
Spot 2 Rocket 3.9 20:49:21 10° SE 20:54:09 47° ENE 20:58:58 10° N
Cosmos 468 Rocket 4.0 20:49:55 10° SSW 20:55:12 87° ESE 21:00:27 10° NNE
SJ 16-02 3.6 20:53:59 10° NE 20:55:18 11° ENE 20:56:38 10° ENE
Cosmos 1763 Rocket 3.6 20:52:44 10° S 20:57:55 57° ESE 21:03:06 10° NNE
Tiangong 2 2.5 20:54:58 10° WNW 20:57:57 38° N 21:00:57 10° ENE
Cosmos 1937 Rocket 3.9 20:54:04 10° N 20:59:03 47° ENE 21:03:59 10° SE
Cosmos 1939 Rocket 3.1 20:57:57 10° S 21:02:04 78° WSW 21:06:14 10° NNW
SL-16 R/B 2.3 20:57:00 10° NNW 21:02:40 66° ENE 21:08:17 10° SSE
ISS -0.7 21:02:22 10° NW 21:04:15 14° NNW 21:06:06 10° NNE
BREEZE M DEB (TANK) 4.2 20:51:58 10° WNW 21:05:11 56° NNE 21:09:09 10° E
Cosmos 841 Rocket 3.8 21:00:28 10° S 21:05:25 45° ESE 21:10:25 10° NNE
Cosmos 292 Rocket 4.2 21:01:22 10° S 21:05:48 40° ESE 21:10:14 10° NE
Cosmos 2233 Rocket 4.0 21:01:35 10° S 21:07:43 81° E 21:13:56 10° N
Cosmos 2298 Rocket 4.5 21:04:35 10° N 21:09:42 47° ENE 21:14:31 11° SE
ATLAS CENTAUR R/B 4.1 21:08:05 10° SW 21:13:53 85° NW 21:32:07 10° NE
Resurs 01 Rocket 1.7 21:10:04 10° S 21:14:28 78° WSW 21:18:53 10° NNW
ELECTRON R/B 4.4 21:13:01 10° N 21:15:29 85° W 21:18:02 10° S
CZ-4C R/B 4.3 21:10:19 10° NNW 21:15:56 24° NE 21:22:03 10° E
Cosmos 1340 Rocket 3.5 21:12:17 10° SSE 21:16:00 36° E 21:19:45 10° NNE
USA 234 3.3 21:10:48 10° NE 21:17:17 60° SE 21:23:44 10° SSW
USA 32 4.5 21:17:47 10° N 21:22:47 43° E 21:27:06 13° SSE
Meteor 1-13 Rocket 4.3 21:22:30 10° S 21:28:23 78° E 21:34:22 10° NNE
ERS-2 3.4 21:26:04 10° S 21:29:33 40° W 21:33:03 10° NNW
ERS-1 Rocket 4.0 21:27:39 15° ESE 21:30:55 30° ENE 21:35:15 10° N
CENTAUR R/B 2.5 21:31:39 10° SW 21:37:31 85° WNW 21:44:18 10° NNE
Cosmos 1666 4.0 21:34:39 10° NNW 21:38:19 40° W 21:41:56 10° SSW
Cosmos 2360 Rocket 2.5 21:34:35 10° NNW 21:40:07 54° ENE 21:43:55 20° SE
Cosmos 1025 Rocket 4.5 21:40:14 18° ESE 21:41:17 20° E 21:44:29 10° NE
Cosmos 2219 Rocket 4.0 21:38:43 10° N 21:42:23 17° NE 21:45:43 11° E
Cosmos 1356 3.4 21:40:32 15° S 21:43:16 64° E 21:46:43 10° NNE
MetOp-A 4.2 21:43:50 18° SSE 21:47:51 70° ENE 21:53:11 10° N
Aureole 2 Rocket 1.8 21:47:40 10° NNW 21:50:32 78° WSW 21:51:29 36° S
Cosmos 1513 Rocket 4.4 21:47:29 10° S 21:53:32 70° E 21:59:41 10° NNE
Okean 2 4.2 21:53:27 28° SE 21:54:43 34° E 21:58:30 10° NNE
Atlas Centaur 2 3.5 21:54:33 10° SSW 21:55:04 10° SSW 21:55:30 10° SSW
Meteor 2-9 Rocket 4.3 21:50:54 10° NNW 21:56:16 73° W 22:00:55 14° S
SPOT 1/Viking Rocket 4.5 21:55:11 22° ESE 21:57:34 33° ENE 22:02:08 10° N
Cosmos 1455 Rocket 3.1 21:54:07 10° N 21:58:30 77° W 22:01:29 20° S
Cosmos 1125 Rocket 4.1 21:54:48 10° N 21:59:46 41° ENE 22:02:08 26° ESE
Cosmos 2034 Rocket 4.0 21:54:59 16° S 21:59:59 63° E 22:06:03 10° NNE
H-2A R/B 1.9 21:57:46 24° SSE 22:00:46 74° ENE 22:05:49 10° N
USA 245 3.7 22:00:38 33° ESE 22:01:55 48° ENE 22:06:15 10° N
Cosmos 1464 Rocket 4.0 21:55:40 10° S 22:02:02 89° W 22:08:27 10° N
GPS 2-05 Rocket1 3.1 21:59:03 10° WSW 22:02:11 40° S 22:02:11 40° S
Helios 1A 3.8 22:00:58 27° ESE 22:02:16 34° ENE 22:06:03 10° N
BREEZE-M DEB (TANK) 4.0 22:05:15 10° W 22:07:39 28° SSW 22:08:59 23° S
Cosmos 1356 Rocket 3.9 22:07:09 35° SE 22:08:11 41° E 22:12:14 10° NNE
Cosmos 836 Rocket 4.4 22:07:33 10° SSW 22:12:40 82° ESE 22:17:54 10° NNE
COSMOS 2455 4.5 22:14:03 16° E 22:14:03 16° E 22:16:44 10° ENE
Cosmos 2333 Rocket 3.5 22:08:29 10° N 22:13:17 27° ENE 22:15:46 20° E
COSMOS 2428 3.3 22:10:58 10° N 22:16:22 44° ENE 22:18:42 29° ESE
Meteor 1-23 Rocket 4.3 22:12:40 11° SSW 22:18:05 76° W 22:23:40 10° N
Terra 2.9 22:21:33 26° E 22:22:39 29° ENE 22:26:43 10° N
ARGOS 3.7 22:19:05 20° S 22:22:45 55° W 22:28:05 10° NNW
Helios 1B rocket 2.7 22:20:22 10° NNE 22:24:21 45° E 22:24:33 44° ESE
Cosmos 540 Rocket 4.1 22:20:29 10° SSW 22:25:32 55° WNW 22:30:39 10° N
Shenzhou-11 Module 3.2 22:24:01 10° W 22:26:08 33° WSW 22:26:08 33° WSW
DMSP B5D2-2 4.0 22:21:33 10° NNE 22:26:52 80° ESE 22:29:45 28° S
SPOT 5 2.7 22:26:23 45° SE 22:27:34 64° ENE 22:32:07 10° N
Cosmos 2297 Rocket 3.8 22:29:00 17° E 22:29:00 17° E 22:31:42 10° ENE
Cosmos 2227 Rocket 3.5 22:32:29 22° E 22:32:29 22° E 22:35:58 10° NE
Lacrosse 5 rocket 1.4 22:28:16 10° NW 22:32:30 65° SW 22:33:08 55° S
SJ 16-02 1.5 22:29:58 10° NNW 22:34:23 68° WSW 22:35:37 44° S
Tiangong 2 1.9 22:31:59 10° WNW 22:35:01 44° N 22:35:15 43° NNE
Cosmos 2322 Rocket 4.2 22:31:16 10° NW 22:35:18 20° W 22:39:19 10° SSW
IGS 5A 4.0 22:35:34 41° E 22:35:53 41° ENE 22:39:49 10° N
Cosmos 2322 3.9 22:32:14 10° NNW 22:37:56 69° WSW 22:40:13 37° S
Cosmos 2237 Rocket 3.7 22:35:22 10° N 22:39:59 25° NE 22:41:55 21° E
Cosmos 1066 Rocket 4.0 22:44:56 41° S 22:46:55 86° E 22:52:24 10° N
Okean 1-7 Rocket 3.6 22:48:21 62° ESE 22:48:38 64° E 22:53:09 10° NNE
Cosmos 1726 Rocket 4.4 22:46:29 10° N 22:50:28 36° ENE 22:50:28 36° ENE
Cosmos 1544 3.5 22:48:23 10° N 22:51:33 55° NE 22:51:33 55° NE
Cosmos 372 Rocket 4.5 22:51:40 10° NNW 22:56:37 51° WSW 22:58:00 39° SSW
USA 234 4.5 22:54:00 10° NE 23:00:06 42° NNW 23:06:10 10° W
Cosmos 192 4.1 23:00:54 70° SSE 23:01:23 77° ESE 23:06:18 10° NNE
Cosmos 2219 3.3 23:02:08 29° SSW 23:05:11 76° WNW 23:10:58 10° NNE
CZ-4C R/B 2.9 22:57:59 10° NNW 23:05:23 90° WSW 23:08:19 44° SSE
DELTA 2 R/B (1) 3.4 23:00:46 10° WSW 23:06:18 71° SSE 23:07:30 53° E
Cosmos 1092 Rocket 4.0 23:02:44 10° N 23:09:05 77° W 23:11:07 46° S
ERS-1 Rocket 4.5 23:07:39 22° SW 23:09:37 29° W 23:13:59 10° NW
Meteor 1-21 4.3 23:09:34 53° ESE 23:09:53 54° E 23:15:21 10° NNE
Cosmos 2058 Rocket 3.8 23:06:10 10° N 23:10:02 41° ENE 23:10:02 41° ENE
CARTOSAT-1 3.6 23:13:06 72° W 23:13:06 72° W 23:17:23 10° NNW
Cosmos 1766 3.9 23:09:45 10° N 23:12:58 52° NNE 23:12:58 52° NNE
NOSS 0 Rocket 4.0 23:11:11 10° NNW 23:17:26 69° ENE 23:18:39 55° ESE
Meteor 1-22 Rocket 3.9 23:12:14 10° N 23:17:35 84° E 23:18:04 74° SSE
CZ-2C R/B 2.7 23:13:11 10° NNE 23:18:44 60° E 23:18:57 59° ESE
Cosmos 2360 Rocket 4.1 23:19:46 10° WNW 23:23:37 19° W 23:25:42 16° SW
Cosmos 2219 Rocket 2.1 23:21:18 10° NNW 23:26:51 69° WSW 23:27:26 64° SSW
Cosmos 1538 Rocket 3.8 23:28:54 85° SE 23:28:57 85° ESE 23:34:13 10° NNE
Cosmos 489 Rocket 4.5 23:24:12 10° NNW 23:30:34 72° ENE 23:31:34 61° ESE
CZ-2C R/B 3.1 23:32:01 71° SSW 23:32:32 78° WSW 23:38:11 10° NNW
Cosmos 1606 Rocket 4.0 23:29:12 10° NNW 23:33:18 55° WNW 23:33:18 55° WNW
Cosmos 2026 Rocket 3.9 23:30:02 10° N 23:36:09 74° W 23:37:10 61° SSW
Cosmos 2279 Rocket 3.9 23:37:52 66° S 23:38:52 88° W 23:45:07 10° N
Cosmos 1842 4.5 23:45:48 41° NNW 23:45:48 41° NNW 23:48:34 10° N
Intercosmos 25 4.3 23:47:04 45° NNW 23:47:04 45° NNW 23:49:39 10° N
Cosmos 1805 4.5 23:42:40 10° NNW 23:45:23 41° NNW 23:45:23 41° NNW
Mayak 0.9 23:44:50 10° NE 23:46:22 18° NE 23:46:22 18° NE
Cosmos 1655 Rocket 3.9 23:44:19 10° N 23:50:44 88° W 23:51:26 73° S
